QPF
0.01 0.01 0.01 0.01 0.01 0.01 0.01 0.01 0.02 0.02 0.02 0.02 0.03 0.04 0.05 0.05 0.05 0.04 0.04 0.05 0.05 0.05 0.05 0.05 0.05 0.06 0.06 0.05 0.04 0.04 0.04 0.05 0.06 0.06 0.06 0.05 0.04 0.03 0.02 0.02 0.01 0.01 0.02
0.01 0.01 0.01 0.01 0.01 0.01 0.01 0.01 0.01 0.02 0.02 0.03 0.04 0.05 0.06 0.07 0.06 0.05 0.04 0.04 0.04 0.04 0.04 0.04 0.04 0.03 0.03 0.04 0.03 0.03 0.03 0.03 0.04 0.04 0.04 0.03 0.03 0.02 0.02 0.02 0.01 0.01 0.02
0.01 0.01 0.01 0.01 0.01 0.01 0.01 0.01 0.01 0.01 0.02 0.03 0.04 0.04 0.05 0.06 0.07 0.05 0.04 0.03 0.03 0.03 0.03 0.04 0.04 0.04 0.03 0.03 0.03 0.03 0.02 0.02 0.02 0.03 0.03 0.04 0.03 0.02 0.02 0.02 0.02 0.02 0.01
0.01 0.01 0.01 0.01 0.01 0.01 0.01 0.01 0.01 0.01 0.02 0.03 0.03 0.03 0.04 0.04 0.05 0.06 0.04 0.03 0.03 0.03 0.03 0.03 0.03 0.04 0.04 0.04 0.05 0.05 0.03 0.03 0.03 0.03 0.03 0.03 0.03 0.03 0.03 0.03 0.02 0.02 0.02
0.01 0.01 0.01 0.01 0.01 0.01 0.01 0.01 0.01 0.01 0.01 0.02 0.03 0.03 0.02 0.03 0.04 0.04 0.03 0.03 0.03 0.02 0.02 0.03 0.03 0.05 0.04 0.03 0.03 0.04 0.05 0.05 0.06 0.05 0.04 0.04 0.04 0.04 0.03 0.03 0.03 0.04 0.03
0.01 0.01 0.01 0.01 0.01 0.02 0.02 0.01 0.01 0.02 0.01 0.01 0.01 0.02 0.02 0.02 0.02 0.02 0.02 0.03 0.03 0.02 0.02 0.02 0.02 0.03 0.03 0.02 0.02 0.02 0.03 0.03 0.04 0.05 0.06 0.05 0.05 0.04 0.03 0.02 0.03 0.04 0.05
0.01 0.01 0.02 0.02 0.02 0.02 0.02 0.01 0.01 0.01 0.01 0.01 0.01 0.02 0.02 0.02 0.01 0.01 0.02 0.03 0.03 0.03 0.02 0.01 0.01 0.01 0.01 0.01 0.01 0.01 0.02 0.02 0.02 0.04 0.04 0.04 0.04 0.05 0.05 0.04 0.04 0.05 0.05
0.01 0.02 0.02 0.02 0.02 0.02 0.01 0.01 0.01 0.01 0.01 0.01 0.01 0.02 0.02 0.02 0.01 0.02 0.01 0.02 0.04 0.04 0.03 0.02 0.02 0.01 0.01 0.01 0.01 0.02 0.02 0.02 0.02 0.02 0.03 0.04 0.04 0.05 0.07 0.06 0.06 0.06 0.06
0.01 0.02 0.01 0.01 0.01 0.01 0.01 0.01 0.01 0.02 0.02 0.02 0.01 0.02 0.03 0.02 0.02 0.03 0.02 0.03 0.05 0.05 0.04 0.03 0.02 0.02 0.01 0.01 0.01 0.02 0.02 0.03 0.01 0.01 0.01 0.01 0.01 0.02 0.03 0.05 0.05 0.06 0.06
0.02 0.02 0.01 0.01 0.01 0.01 0.01 0.01 0.02 0.02 0.02 0.03 0.04 0.06 0.06 0.05 0.06 0.06 0.05 0.04 0.05 0.05 0.04 0.03 0.02 0.02 0.01 0.02 0.02 0.02 0.01 0.02 0.01 0.01 0.02 0.02 0.02 0.02 0.01 0.02 0.03 0.04 0.04
0.03 0.02 0.02 0.02 0.02 0.02 0.01 0.01 0.02 0.02 0.02 0.03 0.04 0.06 0.06 0.06 0.06 0.05 0.04 0.03 0.04 0.03 0.02 0.02 0.01 0.01 0.01 0.01 0.01 0.02 0.01 0.01 0.01 0.01 0.02 0.02 0.03 0.03 0.03 0.02 0.03 0.03 0.03
0.01 0.01 0.02 0.02 0.01 0.01 0.01 0.02 0.01 0.02 0.02 0.03 0.02 0.03 0.03 0.03 0.04 0.03 0.02 0.02 0.02 0.02 0.02 0.01 0.01 0.01 0.01 0.01 0.01 0.01 0.01 0.01 0.01 0.02 0.02 0.02 0.02 0.02 0.02 0.02 0.03 0.03 0.02
0.01 0.01 0.01 0.01 0.01 0.01 0.01 0.02 0.03 0.03 0.03 0.02 0.02 0.02 0.02 0.03 0.03 0.02 0.02 0.02 0.01 0.02 0.02 0.02 0.02 0.01 0.00 0.00 0.00 0.00 0.01 0.01 0.02 0.02 0.01 0.01 0.02 0.02 0.02 0.02 0.03 0.03 0.02
0.01 0.02 0.02 0.03 0.02 0.02 0.02 0.02 0.04 0.03 0.03 0.03 0.03 0.02 0.02 0.02 0.03 0.02 0.02 0.02 0.02 0.02 0.02 0.01 0.01 0.00 0.00 0.00 0.01 0.01 0.01 0.01 0.02 0.01 0.01 0.01 0.01 0.01 0.02 0.02 0.02 0.03 0.03
0.01 0.02 0.03 0.03 0.03 0.02 0.01 0.01 0.02 0.03 0.03 0.03 0.02 0.02 0.02 0.02 0.02 0.02 0.02 0.02 0.02 0.02 0.02 0.01 0.01 0.01 0.01 0.01 0.01 0.01 0.02 0.02 0.02 0.02 0.02 0.02 0.02 0.02 0.02 0.02 0.03 0.04 0.05
0.01 0.01 0.01 0.01 0.01 0.02 0.01 0.01 0.01 0.01 0.01 0.01 0.00 0.00 0.01 0.01 0.01 0.01 0.01 0.01 0.01 0.01 0.01 0.01 0.01 0.01 0.01 0.01 0.01 0.01 0.02 0.03 0.03 0.03 0.02 0.02 0.02 0.02 0.02 0.03 0.04 0.05 0.05
0.01 0.01 0.01 0.02 0.01 0.01 0.01 0.01 0.01 0.01 0.01 0.00 0.00 0.00 0.00 0.01 0.01 0.01 0.01 0.01 0.01 0.02 0.01 0.02 0.02 0.02 0.02 0.02 0.01 0.01 0.02 0.03 0.03 0.03 0.03 0.02 0.02 0.03 0.03 0.03 0.03 0.03 0.05
0.02 0.01 0.01 0.02 0.01 0.01 0.01 0.01 0.01 0.01 0.02 0.01 0.00 0.00 0.01 0.01 0.02 0.01 0.01 0.01 0.01 0.01 0.01 0.02 0.02 0.01 0.02 0.02 0.01 0.02 0.02 0.03 0.03 0.02 0.02 0.02 0.02 0.02 0.02 0.02 0.02 0.03 0.03
0.01 0.01 0.02 0.03 0.03 0.01 0.01 0.01 0.01 0.01 0.01 0.01 0.01 0.01 0.01 0.02 0.02 0.03 0.03 0.03 0.03 0.03 0.03 0.03 0.03 0.03 0.03 0.02 0.02 0.02 0.02 0.02 0.02 0.02 0.02 0.02 0.02 0.01 0.01 0.01 0.02 0.02 0.03
0.02 0.02 0.03 0.04 0.04 0.02 0.01 0.02 0.02 0.01 0.02 0.03 0.03 0.04 0.05 0.05 0.05 0.05 0.04 0.04 0.04 0.04 0.03 0.03 0.02 0.02 0.02 0.02 0.01 0.01 0.01 0.01 0.02 0.03 0.03 0.03 0.02 0.02 0.02 0.01 0.02 0.02 0.03
0.02 0.02 0.03 0.03 0.03 0.02 0.01 0.02 0.03 0.03 0.05 0.05 0.06 0.07 0.07 0.05 0.04 0.03 0.02 0.02 0.01 0.01 0.01 0.01 0.01 0.01 0.01 0.02 0.01 0.01 0.01 0.02 0.03 0.03 0.04 0.04 0.03 0.02 0.02 0.02 0.03 0.03 0.03
0.01 0.02 0.03 0.03 0.03 0.03 0.03 0.03 0.05 0.05 0.04 0.04 0.04 0.04 0.03 0.02 0.02 0.02 0.01 0.01 0.01 0.01 0.01 0.01 0.01 0.02 0.02 0.03 0.03 0.02 0.02 0.03 0.04 0.05 0.04 0.04 0.04 0.03 0.02 0.03 0.02 0.02 0.03
0.02 0.02 0.02 0.02 0.02 0.02 0.02 0.02 0.02 0.02 0.02 0.02 0.03 0.03 0.02 0.02 0.02 0.01 0.01 0.01 0.00 0.00 0.01 0.01 0.01 0.02 0.02 0.03 0.03 0.04 0.03 0.04 0.03 0.03 0.03 0.03 0.02 0.02 0.02 0.02 0.02 0.03 0.03
0.02 0.01 0.01 0.01 0.01 0.01 0.01 0.01 0.01 0.01 0.01 0.01 0.03 0.02 0.01 0.02 0.01 0.00 0.00 0.00 0.00 0.00 0.00 0.01 0.02 0.02 0.02 0.03 0.03 0.03 0.04 0.04 0.03 0.03 0.02 0.02 0.02 0.01 0.01 0.02 0.02 0.03 0.03
0.01 0.01 0.01 0.01 0.01 0.01 0.01 0.01 0.01 0.01 0.01 0.04 0.06 0.03 0.01 0.01 0.01 0.00 0.00 0.00 0.00 0.00 0.00 0.01 0.02 0.02 0.03 0.03 0.03 0.04 0.03 0.03 0.03 0.03 0.02 0.02 0.02 0.02 0.02 0.02 0.02 0.02 0.03
0.01 0.01 0.01 0.01 0.02 0.01 0.01 0.01 0.01 0.01 0.02 0.03 0.03 0.01 0.01 0.00 0.00 0.00 0.00 0.00 0.00 0.00 0.00 0.01 0.01 0.02 0.02 0.02 0.02 0.02 0.02 0.03 0.03 0.03 0.03 0.02 0.02 0.02 0.02 0.02 0.02 0.02 0.02
MSLP
1015.00 1015.07 1015.19 1015.34 1015.47 1015.55 1015.56 1015.49 1015.34 1015.14 1014.92 1014.69 1014.49 1014.34 1014.25 1014.21 1014.22 1014.27 1014.33 1014.39 1014.42 1014.43 1014.39 1014.31 1014.19 1014.03 1013.84 1013.63 1013.40 1013.16 1012.93 1012.70 1012.49 1012.31 1012.17 1012.06 1011.98 1011.94 1011.92 1011.92 1011.93 1011.93 1011.93
1014.68 1014.68 1014.75 1014.86 1014.99 1015.08 1015.12 1015.10 1015.00 1014.84 1014.65 1014.45 1014.26 1014.11 1014.01 1013.97 1013.99 1014.05 1014.13 1014.22 1014.30 1014.35 1014.36 1014.32 1014.23 1014.10 1013.93 1013.74 1013.52 1013.29 1013.07 1012.85 1012.65 1012.47 1012.31 1012.17 1012.06 1011.97 1011.90 1011.84 1011.79 1011.75 1011.72
1014.39 1014.32 1014.34 1014.42 1014.52 1014.62 1014.69 1014.71 1014.66 1014.56 1014.43 1014.27 1014.11 1013.99 1013.91 1013.88 1013.91 1013.98 1014.08 1014.19 1014.29 1014.37 1014.41 1014.40 1014.34 1014.23 1014.08 1013.89 1013.69 1013.47 1013.25 1013.04 1012.84 1012.65 1012.47 1012.31 1012.16 1012.02 1011.90 1011.78 1011.67 1011.58 1011.51
1014.13 1014.02 1013.98 1014.02 1014.10 1014.19 1014.28 1014.33 1014.34 1014.30 1014.23 1014.13 1014.03 1013.95 1013.90 1013.89 1013.93 1014.01 1014.12 1014.24 1014.36 1014.45 1014.51 1014.51 1014.47 1014.38 1014.24 1014.07 1013.88 1013.68 1013.47 1013.27 1013.07 1012.88 1012.69 1012.50 1012.32 1012.14 1011.96 1011.79 1011.63 1011.48 1011.36
1013.91 1013.76 1013.68 1013.67 1013.72 1013.80 1013.88 1013.95 1014.00 1014.02 1014.01 1013.97 1013.93 1013.90 1013.89 1013.91 1013.97 1014.06 1014.17 1014.30 1014.41 1014.51 1014.57 1014.59 1014.56 1014.49 1014.38 1014.23 1014.06 1013.88 1013.70 1013.51 1013.32 1013.14 1012.95 1012.75 1012.55 1012.34 1012.12 1011.90 1011.68 1011.48 1011.31
1013.72 1013.54 1013.43 1013.37 1013.37 1013.42 1013.48 1013.56 1013.63 1013.68 1013.71 1013.74 1013.75 1013.76 1013.79 1013.84 1013.92 1014.01 1014.13 1014.25 1014.37 1014.47 1014.54 1014.58 1014.57 1014.52 1014.44 1014.33 1014.20 1014.05 1013.90 1013.74 1013.58 1013.41 1013.23 1013.04 1012.83 1012.60 1012.36 1012.10 1011.84 1011.59 1011.36
1013.57 1013.36 1013.20 1013.10 1013.04 1013.04 1013.07 1013.12 1013.18 1013.25 1013.31 1013.37 1013.42 1013.47 1013.53 1013.60 1013.70 1013.80 1013.92 1014.05 1014.17 1014.28 1014.37 1014.43 1014.45 1014.44 1014.40 1014.34 1014.25 1014.15 1014.04 1013.92 1013.79 1013.65 1013.49 1013.32 1013.11 1012.89 1012.64 1012.37 1012.08 1011.79 1011.50
1013.43 1013.20 1013.00 1012.83 1012.72 1012.65 1012.63 1012.64 1012.67 1012.72 1012.78 1012.85 1012.92 1012.99 1013.08 1013.17 1013.27 1013.40 1013.53 1013.66 1013.80 1013.93 1014.05 1014.14 1014.21 1014.25 1014.26 1014.24 1014.21 1014.16 1014.09 1014.01 1013.92 1013.81 1013.68 1013.53 1013.35 1013.14 1012.90 1012.63 1012.34 1012.02 1011.70
1013.31 1013.05 1012.80 1012.58 1012.41 1012.27 1012.18 1012.13 1012.11 1012.13 1012.17 1012.22 1012.29 1012.37 1012.47 1012.57 1012.70 1012.83 1012.99 1013.15 1013.31 1013.47 1013.63 1013.76 1013.87 1013.96 1014.02 1014.06 1014.07 1014.06 1014.03 1013.99 1013.93 1013.85 1013.75 1013.63 1013.48 1013.30 1013.08 1012.83 1012.55 1012.24 1011.90
1013.20 1012.91 1012.63 1012.36 1012.12 1011.92 1011.76 1011.64 1011.57 1011.53 1011.53 1011.55 1011.61 1011.68 1011.78 1011.90 1012.04 1012.20 1012.38 1012.57 1012.77 1012.97 1013.16 1013.34 1013.49 1013.62 1013.73 1013.80 1013.84 1013.86 1013.85 1013.83 1013.79 1013.73 1013.65 1013.56 1013.44 1013.29 1013.12 1012.90 1012.65 1012.37 1012.05
1013.10 1012.80 1012.49 1012.19 1011.90 1011.64 1011.42 1011.23 1011.09 1010.99 1010.94 1010.92 1010.95 1011.01 1011.11 1011.23 1011.39 1011.57 1011.78 1012.00 1012.24 1012.47 1012.70 1012.91 1013.10 1013.25 1013.38 1013.46 1013.52 1013.54 1013.54 1013.52 1013.49 1013.44 1013.38 1013.31 1013.22 1013.11 1012.97 1012.81 1012.61 1012.37 1012.10
1013.04 1012.73 1012.41 1012.08 1011.76 1011.45 1011.17 1010.93 1010.72 1010.56 1010.45 1010.39 1010.38 1010.42 1010.51 1010.64 1010.81 1011.01 1011.25 1011.50 1011.76 1012.02 1012.27 1012.49 1012.69 1012.85 1012.96 1013.04 1013.09 1013.10 1013.09 1013.06 1013.02 1012.98 1012.93 1012.87 1012.81 1012.74 1012.65 1012.54 1012.40 1012.22 1012.00
1013.01 1012.71 1012.39 1012.05 1011.71 1011.36 1011.04 1010.74 1010.47 1010.25 1010.09 1009.98 1009.93 1009.95 1010.02 1010.15 1010.32 1010.54 1010.78 1011.05 1011.32 1011.58 1011.83 1012.04 1012.23 1012.36 1012.46 1012.51 1012.53 1012.52 1012.49 1012.45 1012.40 1012.36 1012.32 1012.28 1012.25 1012.22 1012.17 1012.11 1012.03 1011.91 1011.76
1013.01 1012.73 1012.41 1012.08 1011.72 1011.35 1010.98 1010.63 1010.32 1010.04 1009.82 1009.67 1009.58 1009.56 1009.61 1009.73 1009.90 1010.11 1010.35 1010.61 1010.86 1011.11 1011.33 1011.51 1011.66 1011.76 1011.81 1011.83 1011.82 1011.78 1011.74 1011.69 1011.65 1011.62 1011.61 1011.60 1011.60 1011.60 1011.59 1011.58 1011.54 1011.47 1011.36
1013.00 1012.74 1012.44 1012.11 1011.74 1011.35 1010.95 1010.57 1010.20 1009.88 1009.61 1009.41 1009.28 1009.23 1009.25 1009.34 1009.48 1009.67 1009.89 1010.12 1010.34 1010.54 1010.71 1010.85 1010.94 1010.98 1011.00 1010.98 1010.94 1010.90 1010.86 1010.83 1010.81 1010.82 1010.84 1010.87 1010.91 1010.94 1010.97 1010.98 1010.97 1010.92 1010.85
1012.94 1012.69 1012.41 1012.08 1011.71 1011.31 1010.89 1010.47 1010.07 1009.70 1009.39 1009.15 1008.98 1008.89 1008.87 1008.93 1009.03 1009.18 1009.35 1009.53 1009.69 1009.83 1009.94 1010.01 1010.03 1010.03 1010.00 1009.97 1009.92 1009.89 1009.88 1009.89 1009.93 1009.99 1010.06 1010.15 1010.24 1010.31 1010.36 1010.39 1010.38 1010.33 1010.25
1012.76 1012.54 1012.26 1011.94 1011.56 1011.15 1010.72 1010.28 1009.85 1009.46 1009.11 1008.83 1008.63 1008.50 1008.45 1008.46 1008.52 1008.61 1008.72 1008.83 1008.92 1008.99 1009.02 1009.02 1008.99 1008.94 1008.88 1008.84 1008.81 1008.82 1008.86 1008.93 1009.05 1009.18 1009.34 1009.49 1009.62 1009.73 1009.81 1009.83 1009.81 1009.75 1009.63
1012.43 1012.22 1011.95 1011.64 1011.27 1010.85 1010.41 1009.97 1009.53 1009.12 1008.76 1008.46 1008.23 1008.07 1007.98 1007.94 1007.95 1007.98 1008.02 1008.06 1008.07 1008.05 1008.01 1007.95 1007.86 1007.78 1007.72 1007.68 1007.68 1007.74 1007.85 1008.01 1008.21 1008.44 1008.67 1008.89 1009.08 1009.23 1009.31 1009.33 1009.29 1009.19 1009.03
1011.91 1011.71 1011.46 1011.16 1010.80 1010.40 1009.98 1009.54 1009.11 1008.71 1008.35 1008.04 1007.79 1007.61 1007.49 1007.41 1007.37 1007.34 1007.31 1007.27 1007.20 1007.12 1007.01 1006.88 1006.76 1006.66 1006.59 1006.57 1006.62 1006.74 1006.93 1007.17 1007.46 1007.77 1008.08 1008.37 1008.61 1008.78 1008.87 1008.88 1008.81 1008.67 1008.46
1011.22 1011.03 1010.80 1010.52 1010.19 1009.82 1009.43 1009.02 1008.62 1008.24 1007.90 1007.60 1007.35 1007.16 1007.01 1006.90 1006.81 1006.73 1006.64 1006.53 1006.40 1006.25 1006.08 1005.92 1005.77 1005.65 1005.59 1005.61 1005.70 1005.87 1006.12 1006.44 1006.80 1007.18 1007.55 1007.89 1008.16 1008.35 1008.45 1008.46 1008.36 1008.19 1007.94
1010.37 1010.21 1010.01 1009.77 1009.48 1009.16 1008.81 1008.45 1008.09 1007.75 1007.43 1007.16 1006.93 1006.73 1006.58 1006.44 1006.32 1006.19 1006.05 1005.89 1005.71 1005.52 1005.31 1005.12 1004.95 1004.84 1004.79 1004.82 1004.95 1005.17 1005.47 1005.83 1006.24 1006.66 1007.07 1007.43 1007.73 1007.93 1008.03 1008.03 1007.92 1007.73 1007.47
1009.44 1009.31 1009.15 1008.95 1008.72 1008.45 1008.16 1007.85 1007.54 1007.25 1006.97 1006.73 1006.51 1006.33 1006.17 1006.02 1005.87 1005.72 1005.55 1005.36 1005.15 1004.93 1004.70 1004.50 1004.33 1004.22 1004.19 1004.25 1004.40 1004.64 1004.97 1005.35 1005.78 1006.21 1006.63 1006.99 1007.28 1007.48 1007.58 1007.57 1007.47 1007.29 1007.03
1008.47 1008.39 1008.27 1008.12 1007.94 1007.73 1007.49 1007.23 1006.98 1006.72 1006.49 1006.27 1006.08 1005.91 1005.76 1005.61 1005.45 1005.29 1005.11 1004.91 1004.69 1004.46 1004.24 1004.04 1003.89 1003.80 1003.78 1003.86 1004.02 1004.28 1004.60 1004.98 1005.40 1005.81 1006.21 1006.55 1006.82 1007.00 1007.09 1007.09 1007.00 1006.84 1006.62
1007.52 1007.48 1007.40 1007.30 1007.16 1006.99 1006.80 1006.59 1006.37 1006.16 1005.95 1005.76 1005.60 1005.44 1005.30 1005.16 1005.01 1004.85 1004.68 1004.48 1004.28 1004.07 1003.87 1003.70 1003.57 1003.50 1003.51 1003.61 1003.78 1004.03 1004.35 1004.71 1005.10 1005.48 1005.83 1006.14 1006.37 1006.53 1006.61 1006.60 1006.53 1006.40 1006.22
1006.61 1006.59 1006.55 1006.47 1006.37 1006.23 1006.06 1005.88 1005.69 1005.51 1005.33 1005.17 1005.02 1004.88 1004.76 1004.64 1004.51 1004.37 1004.22 1004.05 1003.87 1003.70 1003.53 1003.40 1003.31 1003.28 1003.32 1003.44 1003.63 1003.88 1004.18 1004.52 1004.87 1005.21 1005.51 1005.77 1005.96 1006.09 1006.14 1006.14 1006.08 1005.97 1005.84
1005.71 1005.71 1005.68 1005.62 1005.53 1005.40 1005.25 1005.09 1004.92 1004.76 1004.60 1004.46 1004.34 1004.24 1004.14 1004.05 1003.95 1003.84 1003.73 1003.60 1003.46 1003.33 1003.21 1003.13 1003.08 1003.10 1003.17 1003.31 1003.52 1003.78 1004.07 1004.39 1004.70 1005.00 1005.26 1005.47 1005.62 1005.71 1005.74 1005.72 1005.66 1005.58 1005.49
Thickness
5672 5670 5668 5667 5666 5665 5663 5661 5660 5658 5656 5655 5653 5651 5650 5648 5647 5645 5644 5641 5639 5637 5636 5634 5632 5630 5630 5629 5629 5627 5626 5624 5621 5623 5624 5623 5620 5619 5620 5620 5622 5622 5623
5670 5668 5666 5665 5663 5662 5661 5658 5657 5655 5653 5652 5650 5648 5647 5645 5643 5641 5638 5637 5635 5634 5632 5630 5628 5627 5625 5624 5623 5622 5620 5618 5616 5614 5615 5616 5614 5613 5613 5613 5615 5617 5618
5670 5667 5665 5663 5661 5659 5657 5656 5654 5652 5651 5649 5648 5645 5643 5642 5639 5637 5635 5633 5632 5631 5629 5627 5624 5623 5620 5620 5618 5617 5617 5615 5612 5610 5610 5609 5609 5608 5607 5608 5609 5608 5611
5667 5665 5662 5660 5659 5657 5655 5653 5651 5650 5648 5647 5646 5643 5641 5639 5637 5635 5633 5631 5629 5628 5626 5624 5622 5620 5617 5616 5614 5612 5611 5609 5607 5606 5605 5604 5603 5602 5601 5601 5602 5603 5605
5664 5662 5660 5658 5657 5654 5652 5650 5649 5647 5647 5646 5643 5641 5639 5637 5635 5633 5631 5629 5627 5625 5623 5621 5619 5616 5612 5610 5610 5608 5606 5604 5603 5601 5600 5599 5598 5595 5595 5596 5596 5597 5598
5661 5659 5658 5656 5654 5651 5649 5648 5647 5646 5645 5643 5641 5639 5637 5635 5629 5626 5625 5625 5624 5622 5620 5618 5616 5613 5609 5605 5602 5599 5597 5596 5595 5594 5594 5593 5591 5591 5590 5590 5590 5590 5590
5659 5657 5656 5654 5651 5649 5648 5646 5645 5643 5642 5640 5639 5636 5634 5630 5625 5622 5619 5620 5621 5619 5617 5615 5614 5612 5606 5604 5600 5596 5594 5590 5586 5586 5587 5586 5586 5585 5582 5583 5582 5581 5581
5656 5655 5654 5652 5649 5647 5646 5644 5642 5641 5639 5637 5636 5634 5632 5627 5622 5619 5617 5617 5618 5616 5614 5612 5609 5606 5603 5598 5597 5595 5593 5590 5586 5583 5582 5581 5580 5578 5576 5575 5574 5574 5574
5654 5653 5652 5650 5648 5645 5644 5642 5640 5638 5636 5635 5634 5632 5630 5626 5620 5616 5613 5616 5615 5614 5612 5609 5606 5602 5595 5591 5591 5589 5587 5585 5582 5578 5575 5573 5571 5569 5567 5568 5569 5568 5569
5652 5651 5650 5648 5646 5644 5642 5640 5639 5636 5635 5634 5632 5631 5628 5625 5619 5614 5610 5615 5613 5612 5610 5606 5600 5595 5589 5585 5586 5584 5581 5579 5577 5575 5571 5569 5568 5566 5562 5561 5562 5562 5562
5650 5649 5648 5646 5643 5641 5639 5638 5637 5635 5633 5631 5630 5629 5627 5623 5618 5612 5609 5611 5611 5609 5608 5604 5599 5590 5585 5581 5578 5577 5574 5570 5571 5570 5569 5568 5566 5564 5561 5558 5556 5555 5555
5647 5646 5644 5643 5641 5641 5637 5635 5634 5633 5631 5629 5628 5626 5626 5622 5617 5612 5607 5604 5603 5604 5602 5600 5595 5586 5582 5578 5575 5571 5568 5564 5567 5566 5565 5563 5561 5559 5557 5554 5551 5549 5546
5642 5641 5640 5639 5637 5636 5635 5634 5632 5631 5631 5631 5629 5627 5625 5623 5617 5610 5605 5602 5599 5598 5598 5593 5588 5583 5579 5577 5572 5568 5564 5564 5563 5562 5560 5558 5556 5553 5550 5548 5547 5544 5541
5637 5636 5636 5635 5634 5633 5632 5633 5632 5631 5630 5629 5627 5625 5623 5621 5616 5612 5608 5603 5597 5595 5594 5590 5585 5582 5578 5574 5571 5568 5565 5563 5560 5557 5555 5553 5551 5548 5546 5545 5543 5541 5539
5633 5632 5632 5633 5633 5630 5630 5629 5629 5627 5625 5621 5622 5620 5618 5615 5609 5602 5602 5602 5599 5596 5591 5590 5589 5587 5583 5579 5575 5570 5565 5561 5557 5553 5550 5548 5546 5544 5542 5541 5538 5536 5534
5629 5629 5630 5631 5630 5629 5629 5628 5623 5621 5617 5613 5610 5608 5610 5605 5600 5597 5594 5592 5590 5587 5587 5590 5588 5586 5583 5578 5573 5569 5564 5559 5554 5550 5547 5544 5542 5540 5539 5537 5535 5532 5531
5626 5626 5627 5628 5629 5627 5627 5626 5625 5620 5613 5610 5608 5604 5601 5599 5596 5593 5591 5589 5586 5583 5587 5588 5586 5583 5579 5575 5571 5566 5561 5556 5551 5548 5544 5541 5538 5537 5534 5533 5530 5528 5527
5624 5624 5623 5625 5626 5626 5625 5625 5625 5623 5620 5617 5610 5604 5600 5597 5594 5591 5588 5586 5589 5585 5587 5585 5583 5580 5576 5572 5568 5563 5559 5554 5549 5545 5542 5539 5536 5533 5531 5529 5527 5523 5522
5621 5622 5621 5621 5622 5623 5623 5623 5623 5622 5620 5618 5615 5609 5601 5597 5593 5590 5587 5590 5591 5589 5586 5583 5580 5577 5573 5569 5565 5561 5557 5552 5547 5543 5540 5536 5534 5531 5528 5526 5524 5519 5516
5619 5616 5615 5617 5618 5620 5620 5620 5620 5619 5618 5617 5614 5611 5606 5602 5601 5597 5593 5592 5590 5588 5584 5581 5577 5574 5570 5566 5562 5559 5555 5550 5545 5542 5538 5534 5532 5529 5526 5523 5522 5519 5516
5618 5616 5610 5613 5616 5616 5616 5617 5617 5617 5616 5614 5612 5608 5600 5602 5600 5598 5595 5592 5589 5585 5582 5578 5575 5571 5568 5564 5560 5556 5552 5548 5544 5540 5536 5533 5530 5527 5524 5521 5519 5516 5514
5614 5614 5614 5613 5613 5612 5613 5614 5615 5613 5612 5611 5608 5606 5597 5599 5599 5596 5593 5589 5586 5581 5578 5575 5572 5569 5565 5561 5556 5553 5549 5545 5541 5537 5534 5530 5527 5525 5522 5519 5517 5515 5512
5610 5611 5610 5610 5610 5608 5609 5611 5611 5610 5609 5608 5606 5603 5601 5599 5596 5593 5589 5586 5582 5578 5574 5570 5567 5564 5561 5556 5552 5548 5545 5541 5536 5532 5529 5527 5524 5522 5519 5516 5514 5512 5511
5606 5607 5606 5607 5607 5607 5606 5607 5608 5607 5606 5604 5603 5601 5599 5595 5593 5589 5586 5582 5578 5574 5570 5566 5562 5559 5554 5551 5547 5544 5540 5534 5530 5528 5525 5522 5521 5519 5517 5514 5512 5510 5508
5603 5603 5603 5603 5603 5603 5603 5603 5603 5603 5602 5600 5599 5597 5595 5592 5589 5585 5582 5578 5574 5570 5566 5562 5558 5554 5549 5545 5542 5538 5531 5527 5524 5521 5520 5519 5518 5516 5514 5511 5509 5507 5505
5600 5600 5600 5600 5599 5598 5599 5599 5599 5598 5597 5596 5594 5592 5590 5588 5585 5582 5578 5574 5570 5567 5562 5559 5554 5549 5544 5540 5535 5529 5525 5522 5519 5516 5516 5516 5515 5513 5511 5509 5507 5505 5503